Hourly Data Report for October 01, 2017

All times are specified in Local Standard Time (LST). Add 1 hour to adjust for Daylight Saving Time where and when it is observed.

HAMILTON A
ONTARIO

43°10'25.000" N
79°56'06.000" W
237.70 m
6153193
71263
YHM

Download Data

Hourly Data (October 2017)
Hourly Data Report for October 1, 2017
Temp Definition
°C
Dew Point Temp Definition
°C
Rel Hum Definition
%
Wind Dir Definition
10's deg

Wind Spd Definition
km/h
Visibility Definition
km
Stn Press Definition
kPa
Hmdx Definition


Wind Chill Definition


Weather Definition


TIME
00:00 Legend Double Dagger 6.0 2.1 76 15 8 24.1 100.11     LegendNANA
01:00 Legend Double Dagger 5.3 2.1 79 8 5 24.1 100.10     Clear
02:00 Legend Double Dagger 5.8 1.8 75 36 2 24.1 100.07     LegendNANA
03:00 Legend Double Dagger 5.4 1.6 76 36 2 24.1 100.07     LegendNANA
04:00 Legend Double Dagger 2.8 1.3 90 26 5 24.1 100.09     Clear
05:00 Legend Double Dagger 4.3 1.4 82   0 24.1 100.08     LegendNANA
06:00 Legend Double Dagger 4.4 1.3 80 6 3 24.1 100.08     LegendNANA
07:00 Legend Double Dagger 5.8 1.1 72 36 2 24.1 100.13     Mainly Clear
08:00 Legend Double Dagger 10.0 5.5 73 36 3 24.1 100.16     LegendNANA
09:00 Legend Double Dagger 13.0 4.0 54 12 5 24.1 100.16     LegendNANA
10:00 Legend Double Dagger 14.4 5.9 56 18 8 80.5 100.15     Mainly Clear
11:00 Legend Double Dagger 15.4 5.5 52 24 4 24.1 100.09     LegendNANA
12:00 Legend Double Dagger 16.9 7.0 52 18 6 24.1 100.00     LegendNANA
13:00 Legend Double Dagger 16.9 5.9 48 8 4 24.1 99.92     Mainly Clear
14:00 Legend Double Dagger 18.1 6.2 45 16 10 24.1 99.85     LegendNANA
15:00 Legend Double Dagger 17.4 6.2 48 7 9 24.1 99.80     LegendNANA
16:00 Legend Double Dagger 17.2 7.2 52 6 14 24.1 99.74     Mostly Cloudy
17:00 Legend Double Dagger 15.5 7.5 59 7 14 24.1 99.74     LegendNANA
18:00 Legend Double Dagger 12.3 7.1 70 10 12 24.1 99.75     LegendNANA
19:00 Legend Double Dagger 10.5 6.6 77 11 8 24.1 99.77     Clear
20:00 Legend Double Dagger 10.1 6.8 80 10 8 24.1 99.78     LegendNANA
21:00 Legend Double Dagger 8.9 6.2 83 9 6 24.1 99.78     LegendNANA
22:00 Legend Double Dagger 8.9 6.2 83 10 5 24.1 99.81     Mainly Clear
23:00 Legend Double Dagger 7.7 5.8 87 10 8 24.1 99.82     LegendNANA

Notes on Data Quality.

Legend

  • E = Estimated
  • M = Missing
  • NA = Not Available
  • ‡ = Partner data that is not subject to review by the National Climate Archives
Date modified: